Flag for Canada Weather past 2 weeks in Taloyoak, Nunavut, Canada

Now
48 °F

Sunny.


Feels Like: 45 °F
Forecast: 31 / 49 °F
Wind: 8 mph from North

Location: Spence Bay Airport

Current Time: Sep 4, 2015 at 1:27:33 PM

Latest Report: Sep 4, 2015 at 12:00 PM


Visibility: 15 mi

Pressure: 30.24 "Hg

Humidity: 43%

Dew point: 27 °F

Location of TaloyoakLocation

Historic Weather in Taloyoak — Graph

°F

Taloyoak temperature yesterday

Maximum temperature yesterday: 46 °F (at 1:00 PM)
Minimum temperature yesterday: 30 °F (at 3:00 AM)
Average temperature yesterday: 39 °F

Past Weeks' High & Low Weather Summary

 TemperatureHumidityPressure
High50 °F (Aug 25, 2:00 PM)100% (Aug 31, 3:00 AM)30.33 "Hg (Aug 31, 3:00 AM)
Low30 °F (Sep 3, 3:00 AM)43% (Sep 4, 12:00 PM)29.74 "Hg (Aug 28, 5:00 AM)
Average42 °F75%30.07 "Hg
* Reported Aug 20 12:00 Noon — Sep 4 12:00 Noon, Taloyoak, Weather by CustomWeather, © 2015

Note: Actual official high and low records may vary slightly from our data, if they occured in-between our weather recording intervals... More about our weather records

Advertising

Taloyoak weather history for previous 24 hours

 ConditionsComfort  
Time TempWeatherWind HumidityBarometerVisibility
12:00 PM
Fri, Sep 4
48 °FSunny.8 mph43%30.24 "Hg15 mi
11:00 AM46 °FSunny.8 mph53%30.25 "Hg15 mi
10:00 AM43 °FPassing clouds.8 mph66%30.25 "Hg15 mi
9:00 AM41 °FPassing clouds.7 mph70%30.26 "Hg15 mi
8:00 AM39 °FPassing clouds.6 mph81%30.26 "Hg15 mi
7:00 AM36 °FPassing clouds.7 mph87%30.26 "Hg15 mi
6:00 AM34 °FPassing clouds.7 mph87%30.26 "Hg15 mi
5:00 AM32 °FPassing clouds.6 mph93%30.26 "Hg15 mi
4:00 AM32 °FPassing clouds.6 mph93%30.25 "Hg15 mi
3:00 AM34 °FPassing clouds.8 mph87%30.26 "Hg15 mi
2:00 AM32 °FPassing clouds.6 mph87%30.26 "Hg15 mi
1:00 AM32 °FPassing clouds.6 mph93%30.26 "Hg15 mi
12:00 AM32 °FPassing clouds.3 mph93%30.26 "Hg15 mi
11:00 PM
Thu, Sep 3
36 °FPassing clouds.6 mph70%30.26 "Hg15 mi
10:00 PM36 °FPassing clouds.7 mph75%30.25 "Hg15 mi
9:00 PM37 °FPassing clouds.9 mph70%30.25 "Hg15 mi
8:00 PM37 °FPassing clouds.6 mph81%30.25 "Hg15 mi
7:00 PM43 °FPassing clouds.10 mph61%30.24 "Hg15 mi
6:00 PM46 °FPassing clouds.12 mph50%30.25 "Hg15 mi
5:00 PM46 °FPassing clouds.13 mph50%30.26 "Hg15 mi
4:00 PM46 °FPartly sunny.10 mph53%30.27 "Hg15 mi
3:00 PM46 °FScattered clouds.6 mph50%30.28 "Hg15 mi
2:00 PM46 °FPassing clouds.8 mph50%30.29 "Hg15 mi
1:00 PM46 °FPassing clouds.7 mph53%30.28 "Hg15 mi
Weather by CustomWeather, © 2015

See weather overviewHow to use our weather pages